Year,Month,Day,Hour,Minute,Value (Times are PST for temperature in C)
2016,07,10,00,00,11.90
2016,07,10,00,01,11.90
2016,07,10,00,02,11.90
2016,07,10,00,03,11.80
2016,07,10,00,04,11.80
2016,07,10,00,05,11.80
2016,07,10,00,06,11.80
2016,07,10,00,07,11.70
2016,07,10,00,08,11.70
2016,07,10,00,09,11.70
2016,07,10,00,10,11.70
2016,07,10,00,11,11.70
2016,07,10,00,12,11.70
2016,07,10,00,13,11.70
2016,07,10,00,14,11.70
2016,07,10,00,15,11.70
2016,07,10,00,16,11.70
2016,07,10,00,17,11.70
2016,07,10,00,18,11.80
2016,07,10,00,19,11.80
2016,07,10,00,20,11.80
2016,07,10,00,21,11.90
2016,07,10,00,22,11.90
2016,07,10,00,23,12.00
2016,07,10,00,24,12.00
2016,07,10,00,25,12.00
2016,07,10,00,26,12.10
2016,07,10,00,27,12.10
2016,07,10,00,28,12.10
2016,07,10,00,29,12.10
2016,07,10,00,30,12.10
2016,07,10,00,31,12.10
2016,07,10,00,32,12.10
2016,07,10,00,33,12.10
2016,07,10,00,34,12.00
2016,07,10,00,35,12.00
2016,07,10,00,36,12.00
2016,07,10,00,37,12.00
2016,07,10,00,38,11.90
2016,07,10,00,39,11.90
2016,07,10,00,40,11.80
2016,07,10,00,41,11.80
2016,07,10,00,42,11.70
2016,07,10,00,43,11.60
2016,07,10,00,44,11.60
2016,07,10,00,45,11.50
2016,07,10,00,46,11.40
2016,07,10,00,47,11.40
2016,07,10,00,48,11.30
2016,07,10,00,49,11.30
2016,07,10,00,50,11.30
2016,07,10,00,51,11.30
2016,07,10,00,52,11.30
2016,07,10,00,53,11.30
2016,07,10,00,54,11.30
2016,07,10,00,55,11.30
2016,07,10,00,56,11.30
2016,07,10,00,57,11.30
2016,07,10,00,58,11.30
2016,07,10,00,59,11.20
2016,07,10,01,00,11.20
2016,07,10,01,01,11.20
2016,07,10,01,02,11.20
2016,07,10,01,03,11.20
2016,07,10,01,04,11.10
2016,07,10,01,05,11.10
2016,07,10,01,06,11.10
2016,07,10,01,07,11.10
2016,07,10,01,08,11.10
2016,07,10,01,09,11.10
2016,07,10,01,10,11.00
2016,07,10,01,11,11.00
2016,07,10,01,12,11.00
2016,07,10,01,13,11.00
2016,07,10,01,14,10.90
2016,07,10,01,15,10.90
2016,07,10,01,16,10.90
2016,07,10,01,17,10.90
2016,07,10,01,18,10.90
2016,07,10,01,19,10.90
2016,07,10,01,20,10.80
2016,07,10,01,21,10.80
2016,07,10,01,22,10.80
2016,07,10,01,23,10.80
2016,07,10,01,24,10.80
2016,07,10,01,25,10.80
2016,07,10,01,26,10.70
2016,07,10,01,27,10.70
2016,07,10,01,28,10.70
2016,07,10,01,29,10.70
2016,07,10,01,30,10.60
2016,07,10,01,31,10.60
2016,07,10,01,32,10.60
2016,07,10,01,33,10.60
2016,07,10,01,34,10.50
2016,07,10,01,35,10.50
2016,07,10,01,36,10.50
2016,07,10,01,37,10.40
2016,07,10,01,38,10.40
2016,07,10,01,39,10.40
2016,07,10,01,40,10.40
2016,07,10,01,41,10.30
2016,07,10,01,42,10.30
2016,07,10,01,43,10.30
2016,07,10,01,44,10.30
2016,07,10,01,45,10.30
2016,07,10,01,46,10.30
2016,07,10,01,47,10.30
2016,07,10,01,48,10.40
2016,07,10,01,49,10.40
2016,07,10,01,50,10.30
2016,07,10,01,51,10.30
2016,07,10,01,52,10.30
2016,07,10,01,53,10.30
2016,07,10,01,54,10.30
2016,07,10,01,55,10.30
2016,07,10,01,56,10.20
2016,07,10,01,57,10.30
2016,07,10,01,58,10.30
2016,07,10,01,59,10.30
2016,07,10,02,00,10.30
2016,07,10,02,01,10.30
2016,07,10,02,02,10.30
2016,07,10,02,03,10.30
2016,07,10,02,04,10.30
2016,07,10,02,05,10.20
2016,07,10,02,06,10.20
2016,07,10,02,07,10.20
2016,07,10,02,08,10.20
2016,07,10,02,09,10.20
2016,07,10,02,10,10.20
2016,07,10,02,11,10.20
2016,07,10,02,12,10.20
2016,07,10,02,13,10.20
2016,07,10,02,14,10.20
2016,07,10,02,15,10.20
2016,07,10,02,16,10.20
2016,07,10,02,17,10.10
2016,07,10,02,18,10.10
2016,07,10,02,19,10.10
2016,07,10,02,20,10.10
2016,07,10,02,21,10.10
2016,07,10,02,22,10.10
2016,07,10,02,23,10.10
2016,07,10,02,24,10.10
2016,07,10,02,25,10.10
2016,07,10,02,26,10.10
2016,07,10,02,27,10.10
2016,07,10,02,28,10.10
2016,07,10,02,29,10.10
2016,07,10,02,30,10.10
2016,07,10,02,31,10.10
2016,07,10,02,32,10.10
2016,07,10,02,33,10.10
2016,07,10,02,34,10.10
2016,07,10,02,35,10.10
2016,07,10,02,36,10.00
2016,07,10,02,37,10.00
2016,07,10,02,38,10.00
2016,07,10,02,39,10.00
2016,07,10,02,40,10.00
2016,07,10,02,41,10.00
2016,07,10,02,42,10.00
2016,07,10,02,43,10.00
2016,07,10,02,44,10.00
2016,07,10,02,45,10.00
2016,07,10,02,46,10.00
2016,07,10,02,47,10.00
2016,07,10,02,48,9.90
2016,07,10,02,49,9.90
2016,07,10,02,50,9.90
2016,07,10,02,51,9.90
2016,07,10,02,52,9.90
2016,07,10,02,53,9.90
2016,07,10,02,54,9.90
2016,07,10,02,55,9.90
2016,07,10,02,56,9.90
2016,07,10,02,57,9.90
2016,07,10,02,58,9.90
2016,07,10,02,59,9.90
2016,07,10,03,00,9.90
2016,07,10,03,01,9.90
2016,07,10,03,02,9.90
2016,07,10,03,03,9.80
2016,07,10,03,04,9.80
2016,07,10,03,05,9.80
2016,07,10,03,06,9.80
2016,07,10,03,07,9.80
2016,07,10,03,08,9.80
2016,07,10,03,09,9.80
2016,07,10,03,10,9.80
2016,07,10,03,11,9.80
2016,07,10,03,12,9.70
2016,07,10,03,13,9.70
2016,07,10,03,14,9.70
2016,07,10,03,15,9.70
2016,07,10,03,16,9.70
2016,07,10,03,17,9.70
2016,07,10,03,18,9.80
2016,07,10,03,19,9.80
2016,07,10,03,20,9.80
2016,07,10,03,21,9.80
2016,07,10,03,22,9.80
2016,07,10,03,23,9.80
2016,07,10,03,24,9.80
2016,07,10,03,25,9.80
2016,07,10,03,26,9.80
2016,07,10,03,27,9.70
2016,07,10,03,28,9.70
2016,07,10,03,29,9.70
2016,07,10,03,30,9.70
2016,07,10,03,31,9.70
2016,07,10,03,32,9.70
2016,07,10,03,33,9.60
2016,07,10,03,34,9.60
2016,07,10,03,35,9.60
2016,07,10,03,36,9.60
2016,07,10,03,37,9.60
2016,07,10,03,38,9.60
2016,07,10,03,39,9.60
2016,07,10,03,40,9.60
2016,07,10,03,41,9.60
2016,07,10,03,42,9.60
2016,07,10,03,43,9.60
2016,07,10,03,44,9.50
2016,07,10,03,45,9.50
2016,07,10,03,46,9.50
2016,07,10,03,47,9.50
2016,07,10,03,48,9.40
2016,07,10,03,49,9.40
2016,07,10,03,50,9.40
2016,07,10,03,51,9.40
2016,07,10,03,52,9.40
2016,07,10,03,53,9.40
2016,07,10,03,54,9.40
2016,07,10,03,55,9.40
2016,07,10,03,56,9.40
2016,07,10,03,57,9.40
2016,07,10,03,58,9.40
2016,07,10,03,59,9.40
2016,07,10,04,00,9.40
2016,07,10,04,01,9.40
2016,07,10,04,02,9.40
2016,07,10,04,03,9.30
2016,07,10,04,04,9.30
2016,07,10,04,05,9.30
2016,07,10,04,06,9.30
2016,07,10,04,07,9.30
2016,07,10,04,08,9.30
2016,07,10,04,09,9.30
2016,07,10,04,10,9.30
2016,07,10,04,11,9.30
2016,07,10,04,12,9.30
2016,07,10,04,13,9.30
2016,07,10,04,14,9.30
2016,07,10,04,15,9.30
2016,07,10,04,16,9.30
2016,07,10,04,17,9.20
2016,07,10,04,18,9.20
2016,07,10,04,19,9.20
2016,07,10,04,20,9.20
2016,07,10,04,21,9.20
2016,07,10,04,22,9.20
2016,07,10,04,23,9.20
2016,07,10,04,24,9.20
2016,07,10,04,25,9.20
2016,07,10,04,26,9.30
2016,07,10,04,27,9.20
2016,07,10,04,28,9.20
2016,07,10,04,29,9.20
2016,07,10,04,30,9.20
2016,07,10,04,31,9.20
2016,07,10,04,32,9.20
2016,07,10,04,33,9.20
2016,07,10,04,34,9.10
2016,07,10,04,35,9.20
2016,07,10,04,36,9.20
2016,07,10,04,37,9.20
2016,07,10,04,38,9.20
2016,07,10,04,39,9.30
2016,07,10,04,40,9.30
2016,07,10,04,41,9.30
2016,07,10,04,42,9.30
2016,07,10,04,43,9.30
2016,07,10,04,44,9.30
2016,07,10,04,45,9.30
2016,07,10,04,46,9.30
2016,07,10,04,47,9.20
2016,07,10,04,48,9.20
2016,07,10,04,49,9.30
2016,07,10,04,50,9.30
2016,07,10,04,51,9.30
2016,07,10,04,52,9.30
2016,07,10,04,53,9.30
2016,07,10,04,54,9.30
2016,07,10,04,55,9.40
2016,07,10,04,56,9.40
2016,07,10,04,57,9.40
2016,07,10,04,58,9.40
2016,07,10,04,59,9.50
2016,07,10,05,00,9.50
2016,07,10,05,01,9.50
2016,07,10,05,02,9.50
2016,07,10,05,03,9.50
2016,07,10,05,04,9.50
2016,07,10,05,05,9.50
2016,07,10,05,06,9.60
2016,07,10,05,07,9.60
2016,07,10,05,08,9.60
2016,07,10,05,09,9.60
2016,07,10,05,10,9.60
2016,07,10,05,11,9.60
2016,07,10,05,12,9.60
2016,07,10,05,13,9.60
2016,07,10,05,14,9.60
2016,07,10,05,15,9.60
2016,07,10,05,16,9.60
2016,07,10,05,17,9.60
2016,07,10,05,18,9.50
2016,07,10,05,19,9.50
2016,07,10,05,20,9.50
2016,07,10,05,21,9.50
2016,07,10,05,22,9.50
2016,07,10,05,23,9.50
2016,07,10,05,24,9.40
2016,07,10,05,25,9.40
2016,07,10,05,26,9.40
2016,07,10,05,27,9.40
2016,07,10,05,28,9.40
2016,07,10,05,29,9.40
2016,07,10,05,30,9.40
2016,07,10,05,31,9.40
2016,07,10,05,32,9.40
2016,07,10,05,33,9.40
2016,07,10,05,34,9.40
2016,07,10,05,35,9.40
2016,07,10,05,36,9.40
2016,07,10,05,37,9.40
2016,07,10,05,38,9.40
2016,07,10,05,39,9.40
2016,07,10,05,40,9.40
2016,07,10,05,41,9.40
2016,07,10,05,42,9.40
2016,07,10,05,43,9.40
2016,07,10,05,44,9.40
2016,07,10,05,45,9.40
2016,07,10,05,46,9.30
2016,07,10,05,47,9.30
2016,07,10,05,48,9.30
2016,07,10,05,49,9.20
2016,07,10,05,50,9.20
2016,07,10,05,51,9.30
2016,07,10,05,52,9.30
2016,07,10,05,53,9.40
2016,07,10,05,54,9.40
2016,07,10,05,55,9.50
2016,07,10,05,56,9.60
2016,07,10,05,57,9.60
2016,07,10,05,58,9.70
2016,07,10,05,59,9.80
2016,07,10,06,00,9.80
2016,07,10,06,01,9.80
2016,07,10,06,02,9.80
2016,07,10,06,03,9.80
2016,07,10,06,04,9.80
2016,07,10,06,05,9.80
2016,07,10,06,06,9.80
2016,07,10,06,07,9.80
2016,07,10,06,08,9.80
2016,07,10,06,09,9.90
2016,07,10,06,10,9.80
2016,07,10,06,11,9.80
2016,07,10,06,12,9.80
2016,07,10,06,13,9.80
2016,07,10,06,14,9.80
2016,07,10,06,15,9.80
2016,07,10,06,16,9.80
2016,07,10,06,17,9.90
2016,07,10,06,18,9.90
2016,07,10,06,19,9.90
2016,07,10,06,20,9.90
2016,07,10,06,21,10.00
2016,07,10,06,22,10.00
2016,07,10,06,23,10.10
2016,07,10,06,24,10.10
2016,07,10,06,25,10.10
2016,07,10,06,26,10.10
2016,07,10,06,27,10.20
2016,07,10,06,28,10.20
2016,07,10,06,29,10.20
2016,07,10,06,30,10.20
2016,07,10,06,31,10.20
2016,07,10,06,32,10.30
2016,07,10,06,33,10.30
2016,07,10,06,34,10.30
2016,07,10,06,35,10.30
2016,07,10,06,36,10.40
2016,07,10,06,37,10.40
2016,07,10,06,38,10.50
2016,07,10,06,39,10.50
2016,07,10,06,40,10.50
2016,07,10,06,41,10.60
2016,07,10,06,42,10.60
2016,07,10,06,43,10.70
2016,07,10,06,44,10.70
2016,07,10,06,45,10.80
2016,07,10,06,46,10.90
2016,07,10,06,47,11.00
2016,07,10,06,48,11.10
2016,07,10,06,49,11.20
2016,07,10,06,50,11.20
2016,07,10,06,51,11.30
2016,07,10,06,52,11.40
2016,07,10,06,53,11.40
2016,07,10,06,54,11.50
2016,07,10,06,55,11.50
2016,07,10,06,56,11.50
2016,07,10,06,57,11.60
2016,07,10,06,58,11.60
2016,07,10,06,59,11.60
2016,07,10,07,00,11.70
2016,07,10,07,01,11.70
2016,07,10,07,02,11.70
2016,07,10,07,03,11.80
2016,07,10,07,04,11.80
2016,07,10,07,05,11.90
2016,07,10,07,06,11.90
2016,07,10,07,07,12.00
2016,07,10,07,08,12.10
2016,07,10,07,09,12.10
2016,07,10,07,10,12.20
2016,07,10,07,11,12.20
2016,07,10,07,12,12.30
2016,07,10,07,13,12.30
2016,07,10,07,14,12.40
2016,07,10,07,15,12.40
2016,07,10,07,16,12.50
2016,07,10,07,17,12.50
2016,07,10,07,18,12.60
2016,07,10,07,19,12.60
2016,07,10,07,20,12.70
2016,07,10,07,21,12.70
2016,07,10,07,22,12.80
2016,07,10,07,23,12.80
2016,07,10,07,24,12.80
2016,07,10,07,25,12.80
2016,07,10,07,26,12.90
2016,07,10,07,27,12.90
2016,07,10,07,28,12.90
2016,07,10,07,29,12.90
2016,07,10,07,30,12.90
2016,07,10,07,31,12.90
2016,07,10,07,32,12.90
2016,07,10,07,33,12.90
2016,07,10,07,34,12.90
2016,07,10,07,35,12.90
2016,07,10,07,36,12.90
2016,07,10,07,37,12.90
2016,07,10,07,38,12.90
2016,07,10,07,39,12.90
2016,07,10,07,40,12.90
2016,07,10,07,41,12.90
2016,07,10,07,42,13.00
2016,07,10,07,43,13.00
2016,07,10,07,44,13.00
2016,07,10,07,45,13.10
2016,07,10,07,46,13.10
2016,07,10,07,47,13.10
2016,07,10,07,48,13.10
2016,07,10,07,49,13.20
2016,07,10,07,50,13.20
2016,07,10,07,51,13.20
2016,07,10,07,52,13.20
2016,07,10,07,53,13.20
2016,07,10,07,54,13.20
2016,07,10,07,55,13.20
2016,07,10,07,56,13.30
2016,07,10,07,57,13.30
2016,07,10,07,58,13.30
2016,07,10,07,59,13.30
2016,07,10,08,00,13.30
2016,07,10,08,01,13.30
2016,07,10,08,02,13.30
2016,07,10,08,03,13.30
2016,07,10,08,04,13.30
2016,07,10,08,05,13.40
2016,07,10,08,06,13.40
2016,07,10,08,07,13.40
2016,07,10,08,08,13.40
2016,07,10,08,09,13.40
2016,07,10,08,10,13.50
2016,07,10,08,11,13.50
2016,07,10,08,12,13.50
2016,07,10,08,13,13.50
2016,07,10,08,14,13.60
2016,07,10,08,15,13.60
2016,07,10,08,16,13.60
2016,07,10,08,17,13.70
2016,07,10,08,18,13.70
2016,07,10,08,19,13.70
2016,07,10,08,20,13.80
2016,07,10,08,21,13.80
2016,07,10,08,22,13.80
2016,07,10,08,23,13.80
2016,07,10,08,24,13.90
2016,07,10,08,25,13.90
2016,07,10,08,26,13.90
2016,07,10,08,27,14.00
2016,07,10,08,28,14.00
2016,07,10,08,29,14.10
2016,07,10,08,30,14.20
2016,07,10,08,31,14.30
2016,07,10,08,32,14.50
2016,07,10,08,33,14.60
2016,07,10,08,34,14.70
2016,07,10,08,35,14.80
2016,07,10,08,36,14.90
2016,07,10,08,37,15.00
2016,07,10,08,38,15.10
2016,07,10,08,39,15.10
2016,07,10,08,40,15.20
2016,07,10,08,41,15.20
2016,07,10,08,42,15.30
2016,07,10,08,43,15.30
2016,07,10,08,44,15.40
2016,07,10,08,45,15.40
2016,07,10,08,46,15.50
2016,07,10,08,47,15.50
2016,07,10,08,48,15.60
2016,07,10,08,49,15.60
2016,07,10,08,50,15.70
2016,07,10,08,51,15.70
2016,07,10,08,52,15.70
2016,07,10,08,53,15.70
2016,07,10,08,54,15.70
2016,07,10,08,55,15.60
2016,07,10,08,56,15.60
2016,07,10,08,57,15.60
2016,07,10,08,58,15.60
2016,07,10,08,59,15.60
2016,07,10,09,00,15.70
2016,07,10,09,01,15.80
2016,07,10,09,02,15.80
2016,07,10,09,03,15.90
2016,07,10,09,04,15.90
2016,07,10,09,05,15.90
2016,07,10,09,06,16.00
2016,07,10,09,07,16.00
2016,07,10,09,08,16.00
2016,07,10,09,09,16.00
2016,07,10,09,10,16.00
2016,07,10,09,11,16.10
2016,07,10,09,12,16.10
2016,07,10,09,13,16.10
2016,07,10,09,14,16.10
2016,07,10,09,15,16.10
2016,07,10,09,16,16.20
2016,07,10,09,17,16.20
2016,07,10,09,18,16.20
2016,07,10,09,19,16.20
2016,07,10,09,20,16.30
2016,07,10,09,21,16.30
2016,07,10,09,22,16.40
2016,07,10,09,23,16.40
2016,07,10,09,24,16.50
2016,07,10,09,25,16.50
2016,07,10,09,26,16.50
2016,07,10,09,27,16.60
2016,07,10,09,28,16.70
2016,07,10,09,29,16.70
2016,07,10,09,30,16.80
2016,07,10,09,31,16.90
2016,07,10,09,32,17.00
2016,07,10,09,33,17.00
2016,07,10,09,34,17.00
2016,07,10,09,35,16.90
2016,07,10,09,36,16.90
2016,07,10,09,37,17.00
2016,07,10,09,38,17.10
2016,07,10,09,39,17.10
2016,07,10,09,40,17.10
2016,07,10,09,41,17.10
2016,07,10,09,42,17.10
2016,07,10,09,43,17.10
2016,07,10,09,44,17.10
2016,07,10,09,45,17.00
2016,07,10,09,46,17.00
2016,07,10,09,47,17.00
2016,07,10,09,48,17.00
2016,07,10,09,49,17.10
2016,07,10,09,50,17.10
2016,07,10,09,51,17.20
2016,07,10,09,52,17.20
2016,07,10,09,53,17.30
2016,07,10,09,54,17.30
2016,07,10,09,55,17.30
2016,07,10,09,56,17.30
2016,07,10,09,57,17.30
2016,07,10,09,58,17.30
2016,07,10,09,59,17.30
2016,07,10,10,00,17.40
2016,07,10,10,01,17.40
2016,07,10,10,02,17.40
2016,07,10,10,03,17.40
2016,07,10,10,04,17.40
2016,07,10,10,05,17.40
2016,07,10,10,06,17.40
2016,07,10,10,07,17.40
2016,07,10,10,08,17.40
2016,07,10,10,09,17.40
2016,07,10,10,10,17.40
2016,07,10,10,11,17.50
2016,07,10,10,12,17.60
2016,07,10,10,13,17.60
2016,07,10,10,14,17.80
2016,07,10,10,15,17.80
2016,07,10,10,16,17.90
2016,07,10,10,17,17.90
2016,07,10,10,18,17.90
2016,07,10,10,19,18.00
2016,07,10,10,20,18.10
2016,07,10,10,21,18.10
2016,07,10,10,22,18.20
2016,07,10,10,23,18.20
2016,07,10,10,24,18.20
2016,07,10,10,25,18.20
2016,07,10,10,26,18.20
2016,07,10,10,27,18.20
2016,07,10,10,28,18.20
2016,07,10,10,29,18.20
2016,07,10,10,30,18.20
2016,07,10,10,31,18.30
2016,07,10,10,32,18.30
2016,07,10,10,33,18.30
2016,07,10,10,34,18.30
2016,07,10,10,35,18.30
2016,07,10,10,36,18.40
2016,07,10,10,37,18.50
2016,07,10,10,38,18.50
2016,07,10,10,39,18.60
2016,07,10,10,40,18.60
2016,07,10,10,41,18.60
2016,07,10,10,42,18.70
2016,07,10,10,43,18.70
2016,07,10,10,44,18.70
2016,07,10,10,45,18.80
2016,07,10,10,46,18.80
2016,07,10,10,47,18.80
2016,07,10,10,48,18.80
2016,07,10,10,49,18.80
2016,07,10,10,50,18.70
2016,07,10,10,51,18.60
2016,07,10,10,52,18.50
2016,07,10,10,53,18.40
2016,07,10,10,54,18.30
2016,07,10,10,55,18.30
2016,07,10,10,56,18.30
2016,07,10,10,57,18.30
2016,07,10,10,58,18.30
2016,07,10,10,59,18.40
2016,07,10,11,00,18.40
2016,07,10,11,01,18.40
2016,07,10,11,02,18.40
2016,07,10,11,03,18.40
2016,07,10,11,04,18.40
2016,07,10,11,05,18.50
2016,07,10,11,06,18.50
2016,07,10,11,07,18.50
2016,07,10,11,08,18.60
2016,07,10,11,09,18.60
2016,07,10,11,10,18.60
2016,07,10,11,11,18.60
2016,07,10,11,12,18.70
2016,07,10,11,13,18.70
2016,07,10,11,14,18.70
2016,07,10,11,15,18.80
2016,07,10,11,16,18.80
2016,07,10,11,17,18.90
2016,07,10,11,18,18.90
2016,07,10,11,19,18.90
2016,07,10,11,20,18.90
2016,07,10,11,21,18.90
2016,07,10,11,22,18.80
2016,07,10,11,23,18.80
2016,07,10,11,24,18.70
2016,07,10,11,25,18.70
2016,07,10,11,26,18.70
2016,07,10,11,27,18.70
2016,07,10,11,28,18.70
2016,07,10,11,29,18.80
2016,07,10,11,30,18.90
2016,07,10,11,31,19.00
2016,07,10,11,32,19.00
2016,07,10,11,33,19.00
2016,07,10,11,34,19.10
2016,07,10,11,35,19.00
2016,07,10,11,36,19.10
2016,07,10,11,37,19.10
2016,07,10,11,38,19.20
2016,07,10,11,39,19.30
2016,07,10,11,40,19.40
2016,07,10,11,41,19.50
2016,07,10,11,42,19.60
2016,07,10,11,43,19.70
2016,07,10,11,44,19.70
2016,07,10,11,45,19.70
2016,07,10,11,46,19.70
2016,07,10,11,47,19.70
2016,07,10,11,48,19.80
2016,07,10,11,49,19.90
2016,07,10,11,50,19.90
2016,07,10,11,51,20.00
2016,07,10,11,52,20.00
2016,07,10,11,53,20.00
2016,07,10,11,54,20.10
2016,07,10,11,55,20.10
2016,07,10,11,56,20.10
2016,07,10,11,57,20.10
2016,07,10,11,58,20.20
2016,07,10,11,59,20.20
2016,07,10,12,00,20.30
2016,07,10,12,01,20.20
2016,07,10,12,02,20.30
2016,07,10,12,03,20.30
2016,07,10,12,04,20.40
2016,07,10,12,05,20.50
2016,07,10,12,06,20.60
2016,07,10,12,07,20.60
2016,07,10,12,08,20.50
2016,07,10,12,09,20.50
2016,07,10,12,10,20.40
2016,07,10,12,11,20.30
2016,07,10,12,12,20.30
2016,07,10,12,13,20.30
2016,07,10,12,14,20.20
2016,07,10,12,15,20.20
2016,07,10,12,16,20.10
2016,07,10,12,17,20.10
2016,07,10,12,18,20.10
2016,07,10,12,19,20.10
2016,07,10,12,20,20.10
2016,07,10,12,21,20.10
2016,07,10,12,22,20.10
2016,07,10,12,23,20.10
2016,07,10,12,24,20.10
2016,07,10,12,25,20.10
2016,07,10,12,26,20.10
2016,07,10,12,27,20.10
2016,07,10,12,28,20.20
2016,07,10,12,29,20.20
2016,07,10,12,30,20.10
2016,07,10,12,31,20.10
2016,07,10,12,32,20.10
2016,07,10,12,33,20.00
2016,07,10,12,34,19.90
2016,07,10,12,35,19.70
2016,07,10,12,36,19.60
2016,07,10,12,37,19.50
2016,07,10,12,38,19.40
2016,07,10,12,39,19.30
2016,07,10,12,40,19.30
2016,07,10,12,41,19.30
2016,07,10,12,42,19.30
2016,07,10,12,43,19.20
2016,07,10,12,44,19.20
2016,07,10,12,45,19.10
2016,07,10,12,46,19.10
2016,07,10,12,47,19.10
2016,07,10,12,48,19.00
2016,07,10,12,49,19.00
2016,07,10,12,50,19.00
2016,07,10,12,51,18.90
2016,07,10,12,52,18.90
2016,07,10,12,53,18.80
2016,07,10,12,54,18.80
2016,07,10,12,55,18.70
2016,07,10,12,56,18.70
2016,07,10,12,57,18.70
2016,07,10,12,58,18.80
2016,07,10,12,59,18.80
2016,07,10,13,00,18.90
2016,07,10,13,01,19.00
2016,07,10,13,02,19.10
2016,07,10,13,03,19.10
2016,07,10,13,04,19.20
2016,07,10,13,05,19.20
2016,07,10,13,06,19.20
2016,07,10,13,07,19.20
2016,07,10,13,08,19.20
2016,07,10,13,09,19.10
2016,07,10,13,10,19.10
2016,07,10,13,11,19.00
2016,07,10,13,12,19.00
2016,07,10,13,13,18.90
2016,07,10,13,14,18.90
2016,07,10,13,15,19.00
2016,07,10,13,16,18.90
2016,07,10,13,17,18.90
2016,07,10,13,18,19.00
2016,07,10,13,19,19.00
2016,07,10,13,20,19.00
2016,07,10,13,21,19.10
2016,07,10,13,22,19.10
2016,07,10,13,23,19.10
2016,07,10,13,24,19.10
2016,07,10,13,25,19.10
2016,07,10,13,26,19.00
2016,07,10,13,27,19.00
2016,07,10,13,28,19.00
2016,07,10,13,29,19.00
2016,07,10,13,30,18.90
2016,07,10,13,31,18.90
2016,07,10,13,32,18.90
2016,07,10,13,33,18.90
2016,07,10,13,34,18.90
2016,07,10,13,35,19.00
2016,07,10,13,36,19.00
2016,07,10,13,37,19.10
2016,07,10,13,38,19.10
2016,07,10,13,39,19.10
2016,07,10,13,40,19.10
2016,07,10,13,41,19.10
2016,07,10,13,42,19.10
2016,07,10,13,43,19.10
2016,07,10,13,44,19.10
2016,07,10,13,45,19.00
2016,07,10,13,46,19.10
2016,07,10,13,47,19.00
2016,07,10,13,48,19.00
2016,07,10,13,49,19.10
2016,07,10,13,50,19.10
2016,07,10,13,51,19.10
2016,07,10,13,52,19.10
2016,07,10,13,53,19.10
2016,07,10,13,54,19.20
2016,07,10,13,55,19.20
2016,07,10,13,56,19.20
2016,07,10,13,57,19.20
2016,07,10,13,58,19.20
2016,07,10,13,59,19.20
2016,07,10,14,00,19.30
2016,07,10,14,01,19.30
2016,07,10,14,02,19.30
2016,07,10,14,03,19.30
2016,07,10,14,04,19.30
2016,07,10,14,05,19.30
2016,07,10,14,06,19.30
2016,07,10,14,07,19.30
2016,07,10,14,08,19.40
2016,07,10,14,09,19.40
2016,07,10,14,10,19.40
2016,07,10,14,11,19.40
2016,07,10,14,12,19.40
2016,07,10,14,13,19.40
2016,07,10,14,14,19.40
2016,07,10,14,15,19.40
2016,07,10,14,16,19.40
2016,07,10,14,17,19.50
2016,07,10,14,18,19.60
2016,07,10,14,19,19.60
2016,07,10,14,20,19.60
2016,07,10,14,21,19.60
2016,07,10,14,22,19.70
2016,07,10,14,23,19.70
2016,07,10,14,24,19.70
2016,07,10,14,25,19.70
2016,07,10,14,26,19.70
2016,07,10,14,27,19.70
2016,07,10,14,28,19.70
2016,07,10,14,29,19.70
2016,07,10,14,30,19.70
2016,07,10,14,31,19.70
2016,07,10,14,32,19.70
2016,07,10,14,33,19.70
2016,07,10,14,34,19.70
2016,07,10,14,35,19.70
2016,07,10,14,36,19.70
2016,07,10,14,37,19.70
2016,07,10,14,38,19.70
2016,07,10,14,39,19.70
2016,07,10,14,40,19.70
2016,07,10,14,41,19.70
2016,07,10,14,42,19.70
2016,07,10,14,43,19.60
2016,07,10,14,44,19.60
2016,07,10,14,45,19.60
2016,07,10,14,46,19.60
2016,07,10,14,47,19.60
2016,07,10,14,48,19.60
2016,07,10,14,49,19.70
2016,07,10,14,50,19.70
2016,07,10,14,51,19.70
2016,07,10,14,52,19.70
2016,07,10,14,53,19.70
2016,07,10,14,54,19.70
2016,07,10,14,55,19.70
2016,07,10,14,56,19.70
2016,07,10,14,57,19.70
2016,07,10,14,58,19.70
2016,07,10,14,59,19.70
2016,07,10,15,00,19.70
2016,07,10,15,01,19.70
2016,07,10,15,02,19.70
2016,07,10,15,03,19.70
2016,07,10,15,04,19.70
2016,07,10,15,05,19.70
2016,07,10,15,06,19.70
2016,07,10,15,07,19.70
2016,07,10,15,08,19.70
2016,07,10,15,09,19.70
2016,07,10,15,10,19.70
2016,07,10,15,11,19.70
2016,07,10,15,12,19.70
2016,07,10,15,13,19.70
2016,07,10,15,14,19.70
2016,07,10,15,15,19.70
2016,07,10,15,16,19.70
2016,07,10,15,17,19.60
2016,07,10,15,18,19.60
2016,07,10,15,19,19.60
2016,07,10,15,20,19.60
2016,07,10,15,21,19.60
2016,07,10,15,22,19.60
2016,07,10,15,23,19.60
2016,07,10,15,24,19.60
2016,07,10,15,25,19.60
2016,07,10,15,26,19.60
2016,07,10,15,27,19.60
2016,07,10,15,28,19.60
2016,07,10,15,29,19.70
2016,07,10,15,30,19.70
2016,07,10,15,31,19.70
2016,07,10,15,32,19.70
2016,07,10,15,33,19.70
2016,07,10,15,34,19.70
2016,07,10,15,35,19.70
2016,07,10,15,36,19.70
2016,07,10,15,37,19.70
2016,07,10,15,38,19.70
2016,07,10,15,39,19.70
2016,07,10,15,40,19.70
2016,07,10,15,41,19.70
2016,07,10,15,42,19.70
2016,07,10,15,43,19.70
2016,07,10,15,44,19.70
2016,07,10,15,45,19.70
2016,07,10,15,46,19.70
2016,07,10,15,47,19.70
2016,07,10,15,48,19.80
2016,07,10,15,49,19.80
2016,07,10,15,50,19.80
2016,07,10,15,51,19.80
2016,07,10,15,52,19.80
2016,07,10,15,53,19.80
2016,07,10,15,54,19.90
2016,07,10,15,55,19.90
2016,07,10,15,56,19.90
2016,07,10,15,57,20.00
2016,07,10,15,58,20.00
2016,07,10,15,59,20.10
2016,07,10,16,00,20.20
2016,07,10,16,01,20.20
2016,07,10,16,02,20.20
2016,07,10,16,03,20.30
2016,07,10,16,04,20.30
2016,07,10,16,05,20.30
2016,07,10,16,06,20.30
2016,07,10,16,07,20.40
2016,07,10,16,08,20.40
2016,07,10,16,09,20.40
2016,07,10,16,10,20.40
2016,07,10,16,11,20.40
2016,07,10,16,12,20.40
2016,07,10,16,13,20.40
2016,07,10,16,14,20.40
2016,07,10,16,15,20.30
2016,07,10,16,16,20.30
2016,07,10,16,17,20.30
2016,07,10,16,18,20.30
2016,07,10,16,19,20.20
2016,07,10,16,20,20.20
2016,07,10,16,21,20.20
2016,07,10,16,22,20.20
2016,07,10,16,23,20.20
2016,07,10,16,24,20.20
2016,07,10,16,25,20.20
2016,07,10,16,26,20.20
2016,07,10,16,27,20.20
2016,07,10,16,28,20.20
2016,07,10,16,29,20.10
2016,07,10,16,30,20.10
2016,07,10,16,31,20.10
2016,07,10,16,32,20.10
2016,07,10,16,33,20.10
2016,07,10,16,34,20.10
2016,07,10,16,35,20.10
2016,07,10,16,36,20.00
2016,07,10,16,37,20.00
2016,07,10,16,38,20.00
2016,07,10,16,39,20.00
2016,07,10,16,40,20.00
2016,07,10,16,41,20.00
2016,07,10,16,42,20.00
2016,07,10,16,43,20.00
2016,07,10,16,44,20.00
2016,07,10,16,45,20.00
2016,07,10,16,46,20.00
2016,07,10,16,47,20.00
2016,07,10,16,48,20.00
2016,07,10,16,49,20.00
2016,07,10,16,50,20.10
2016,07,10,16,51,20.10
2016,07,10,16,52,20.10
2016,07,10,16,53,20.10
2016,07,10,16,54,20.10
2016,07,10,16,55,20.20
2016,07,10,16,56,20.20
2016,07,10,16,57,20.20
2016,07,10,16,58,20.20
2016,07,10,16,59,20.20
2016,07,10,17,00,20.20
2016,07,10,17,01,20.20
2016,07,10,17,02,20.20
2016,07,10,17,03,20.10
2016,07,10,17,04,20.10
2016,07,10,17,05,20.10
2016,07,10,17,06,20.00
2016,07,10,17,07,20.00
2016,07,10,17,08,19.90
2016,07,10,17,09,19.90
2016,07,10,17,10,19.90
2016,07,10,17,11,19.90
2016,07,10,17,12,19.90
2016,07,10,17,13,19.90
2016,07,10,17,14,19.90
2016,07,10,17,15,19.90
2016,07,10,17,16,19.90
2016,07,10,17,17,19.90
2016,07,10,17,18,19.90
2016,07,10,17,19,19.90
2016,07,10,17,20,19.90
2016,07,10,17,21,19.90
2016,07,10,17,22,19.80
2016,07,10,17,23,19.80
2016,07,10,17,24,19.80
2016,07,10,17,25,19.80
2016,07,10,17,26,19.80
2016,07,10,17,27,19.80
2016,07,10,17,28,19.80